EW7349 Weather Reports


time (UTC)temp
F
wind
direction
speed
knots
gust
knots
rain 1hr
in
rain 24hr
in
rain mn
in
humidity
%
barometer
mb
20260903205531 88 280 0.9 4.3 0.00 0.00 0.00 72 1014.3
20260903205032 88 264 0.9 5.2 0.00 0.00 0.00 72 1014.3
20260903204529 88 283 0.9 5.2 0.00 0.00 0.00 71 1014.3
20260903204030 88 327 0.9 7.8 0.00 0.00 0.00 75 1014.5
20260903203531 88 345 1.7 7.8 0.00 0.00 0.00 71 1014.4
20260903203026 88 221 0.9 4.3 0.00 0.00 0.00 73 1014.4
20260903202526 88 334 0.9 3.5 0.00 0.00 0.00 72 1014.5
20260903202027 88 271 0.9 3.5 0.00 0.00 0.00 72 1014.6
20260903201526 89 263 1.7 3.5 0.00 0.01 0.00 71 1014.8
20260903201248 89 225 1.7 5.2 0.00 0.01 0.00 69 1014.8
20260903200745 89 115 1.7 5.2 0.00 0.01 0.00 70 1014.9
20260903200027 90 247 0.9 3.5 0.00 0.01 0.00 68 1015.0
20260903195524 90 191 0.9 2.6 0.00 0.03 0.00 71 1015.1
20260903195025 89 355 0.9 2.6 0.00 0.04 0.00 71 1015.1
20260903194524 89 290 0.9 3.5 0.00 0.05 0.00 71 1015.2
20260903194023 89 248 0.9 3.5 0.00 0.06 0.00 70 1015.3
20260903193750 89 295 0.9 3.5 0.00 0.09 0.00 72 1015.4
20260903193020 89 169 0.9 3.5 0.00 0.11 0.00 73 1015.4
20260903192519 89 140 0.9 3.5 0.00 0.11 0.00 71 1015.6
20260903192021 89 121 0.9 3.5 0.00 0.11 0.00 71 1015.7
20260903191517 89 216 0.9 3.5 0.00 0.11 0.00 69 1015.8
20260903191018 89 204 0.9 2.6 0.00 0.11 0.00 73 1015.7
20260903190519 88 115 0.9 3.5 0.00 0.11 0.00 73 1015.8
20260903190019 87 262 0.9 3.5 0.00 0.11 0.00 74 1015.9
20260903185518 86 243 0.9 3.5 0.00 0.11 0.00 75 1016.0
20260903185236 85 45 0.9 2.6 0.00 0.11 0.00 77 1016.0
20260903184731 85 265 0.9 2.6 0.00 0.11 0.00 76 1016.0
20260903184011 85 232 0.9 3.5 0.00 0.11 0.00 77 1016.1
20260903183513 86 317 0.9 3.5 0.00 0.11 0.00 76 1016.0
20260903183013 85 227 0.9 3.5 0.00 0.11 0.00 77 1016.1
20260903182733 85 283 0.9 3.5 0.00 0.11 0.00 77 1016.2
20260903182235 85 263 0.9 3.5 0.00 0.11 0.00 78 1016.3
20260903181506 84 311 0.0 2.6 0.00 0.11 0.00 80 1015.9
20260903181219 85 119 0.0 2.6 0.00 0.11 0.00 79 1015.8
20260903180453 84 250 0.0 1.7 0.00 0.11 0.00 76 1016.1
20260903175948 84 248 0.9 1.7 0.00 0.11 0.00 77 1016.4
20260903175441 84 69 0.0 1.7 0.00 0.11 0.00 78 1016.5
20260903174934 85 296 0.0 1.7 0.00 0.11 0.00 76 1016.8
20260903174427 84 298 0.9 1.7 0.00 0.11 0.00 78 1016.8
20260903173921 84 298 0.9 1.7 0.00 0.11 0.00 76 1016.8
20260903173415 85 10 0.9 1.7 0.00 0.11 0.00 77 1016.8
20260903172909 85 274 0.9 2.6 0.00 0.11 0.00 74 1016.9
20260903171858 85 320 0.9 4.3 0.00 0.11 0.00 76 1017.2
20260903171351 85 295 0.9 4.3 0.00 0.11 0.00 76 1017.3
20260903170845 85 319 0.9 3.5 0.00 0.11 0.00 76 1017.5
20260903170339 86 320 0.9 2.6 0.00 0.11 0.00 75 1017.6
20260903170057 85 109 1.7 6.1 0.00 0.11 0.00 76 1017.6
20260903165549 85 299 1.7 6.1 0.00 0.11 0.00 73 1017.6
20260903164821 85 278 0.9 7.0 0.00 0.11 0.00 77 1017.7
20260903164315 86 267 0.9 7.0 0.00 0.11 0.00 76 1017.7
20260903163809 85 64 0.9 3.5 0.00 0.11 0.00 77 1018.0
20260903163303 84 67 0.9 4.3 0.00 0.11 0.00 78 1017.8
20260903163020 85 40 0.0 4.3 0.00 0.11 0.00 77 1017.8
20260903162251 84 36 0.0 1.7 0.00 0.11 0.00 79 1017.8
20260903161746 84 340 0.0 1.7 0.00 0.11 0.00 77 1017.8
20260903161240 84 270 0.0 2.6 0.00 0.11 0.00 77 1017.6
20260903160733 84 321 0.9 3.5 0.00 0.11 0.00 78 1017.6
20260903160228 83 313 0.0 3.5 0.00 0.11 0.00 80 1017.5
20260903155922 82 252 0.0 0.9 0.00 0.11 0.00 83 1017.8
20260903155809 83 321 0.0 0.9 0.00 0.11 0.00 81 1017.7
20260903154709 82 322 0.0 1.7 0.00 0.11 0.00 83 1017.8
20260903154203 81 270 0.0 1.7 0.00 0.11 0.00 82 1017.9
20260903153657 81 270 0.0 1.7 0.00 0.11 0.00 83 1017.8
20260903153157 81 269 0.0 1.7 0.00 0.11 0.00 84 1017.8
20260903152657 80 227 0.0 2.6 0.00 0.11 0.00 87 1017.9
20260903152158 80 247 0.0 2.6 0.00 0.11 0.00 86 1018.0
20260903151918 80 236 0.0 0.9 0.00 0.11 0.00 86 1017.9
20260903151158 80 252 0.0 1.7 0.00 0.11 0.00 87 1017.9
20260903150659 79 238 0.9 2.6 0.00 0.11 0.00 86 1018.0
20260903150155 80 313 0.9 2.6 0.00 0.11 0.00 85 1018.0
20260903145656 79 71 0.9 1.7 0.00 0.11 0.00 86 1017.9
20260903145157 78 153 0.0 1.7 0.00 0.11 0.00 89 1017.8
20260903145136 78 245 0.0 1.7 0.00 0.11 0.00 88 1017.8
20260903144642 78 146 0.0 1.7 0.00 0.11 0.00 90 1017.7
20260903143656 78 71 0.0 0.9 0.00 0.11 0.00 90 1017.5
20260903143157 77 70 0.0 0.9 0.00 0.11 0.00 91 1017.6
20260903142655 76 71 0.0 0.9 0.00 0.11 0.00 92 1017.5
20260903142155 76 71 0.0 0.9 0.00 0.11 0.00 93 1017.6
20260903141653 76 71 0.0 1.7 0.00 0.11 0.00 93 1017.6
20260903141154 76 70 0.0 1.7 0.00 0.11 0.00 93 1017.5
20260903140912 76 71 0.0 1.7 0.00 0.11 0.00 94 1017.5
20260903140142 76 5 0.0 1.7 0.00 0.11 0.00 94 1017.4
20260903135636 75 5 0.0 1.7 0.00 0.11 0.00 94 1017.7
20260903135130 75 66 0.0 1.7 0.00 0.11 0.00 95 1017.8
20260903134624 75 55 0.0 0.9 0.00 0.11 0.00 96 1017.8
20260903134338 75 106 0.0 0.9 0.00 0.11 0.00 96 1017.6
20260903133612 75 106 0.0 0.9 0.00 0.11 0.00 96 1017.6
20260903133106 75 70 0.0 0.9 0.00 0.11 0.00 96 1017.7
20260903132600 75 54 0.0 1.7 0.00 0.11 0.00 96 1017.8
20260903132313 74 49 0.0 1.7 0.00 0.11 0.00 96 1017.8
20260903131548 74 57 0.0 0.9 0.00 0.11 0.00 96 1018.0
20260903131043 74 27 0.9 3.5 0.00 0.11 0.00 96 1018.2
20260903130536 74 91 0.9 3.5 0.00 0.11 0.00 96 1018.2
20260903130029 73 85 0.9 2.6 0.00 0.11 0.00 96 1018.3
20260903125524 73 107 0.9 6.1 0.00 0.11 0.00 96 1018.3
20260903125018 73 67 0.9 6.1 0.00 0.11 0.00 96 1018.3
20260903124514 73 61 0.9 2.6 0.00 0.11 0.00 96 1018.4
20260903124013 73 82 0.0 2.6 0.00 0.11 0.00 96 1018.5
20260903123735 73 75 0.9 2.6 0.00 0.11 0.00 96 1018.6
20260903123012 73 67 0.9 2.6 0.00 0.11 0.00 96 1018.5
20260903122509 73 93 0.9 2.6 0.00 0.11 0.00 96 1018.4
20260903122009 73 63 0.9 5.2 0.00 0.11 0.00 96 1018.4
20260903121507 73 59 0.9 5.2 0.00 0.11 0.00 96 1018.5
20260903121007 73 87 0.9 5.2 0.00 0.11 0.00 96 1018.6
20260903120728 73 170 1.7 5.2 0.00 0.11 0.00 96 1018.5
20260903120004 73 96 0.9 4.3 0.00 0.11 0.00 96 1018.5
20260903115506 73 103 0.9 4.3 0.00 0.11 0.00 96 1018.3
20260903115225 73 71 0.9 3.5 0.00 0.11 0.00 96 1018.2
20260903114504 73 87 0.0 0.9 0.00 0.11 0.00 96 1017.8
20260903114006 72 95 0.9 2.6 0.00 0.11 0.00 96 1017.6
20260903113506 72 95 0.9 2.6 0.00 0.11 0.00 96 1017.7
20260903113001 72 313 0.0 1.7 0.00 0.11 0.00 96 1017.9
20260903112503 72 192 0.0 0.9 0.00 0.11 0.00 96 1017.4
20260903112003 72 192 0.0 0.0 0.00 0.11 0.00 96 1017.3
20260903111501 72 192 0.0 0.0 0.00 0.11 0.00 96 1017.3
20260903111002 72 192 0.0 0.0 0.00 0.11 0.00 96 1017.2
20260903110502 72 192 0.0 0.0 0.00 0.11 0.00 96 1017.1
20260903110002 72 192 0.0 0.0 0.00 0.11 0.00 96 1017.0
20260903105500 72 192 0.0 0.0 0.00 0.11 0.00 96 1016.8
20260903105002 72 192 0.0 0.0 0.00 0.11 0.00 96 1016.7
20260903104500 72 192 0.0 0.0 0.00 0.11 0.00 96 1016.7
20260903104001 72 192 0.0 0.0 0.00 0.11 0.00 96 1016.6
20260903103724 72 192 0.0 0.0 0.00 0.11 0.00 96 1016.4
20260903103003 72 192 0.0 0.9 0.00 0.11 0.00 96 1016.4
20260903102500 72 192 0.0 0.9 0.00 0.11 0.00 96 1016.4
20260903102220 72 192 0.0 0.9 0.00 0.11 0.00 96 1016.4
20260903101502 72 192 0.0 0.9 0.00 0.11 0.00 96 1016.4
20260903100959 72 192 0.0 0.9 0.00 0.11 0.00 96 1016.4
20260903100722 72 192 0.0 0.0 0.00 0.11 0.00 96 1016.4
20260903095953 72 192 0.0 0.0 0.00 0.11 0.00 96 1016.5
20260903095455 72 192 0.0 0.0 0.00 0.11 0.00 96 1016.5
20260903094955 72 192 0.0 0.9 0.00 0.11 0.00 96 1016.5
20260903094450 72 192 0.0 0.9 0.00 0.11 0.00 96 1016.6
20260903093947 72 192 0.0 0.9 0.00 0.11 0.00 96 1016.6
20260903093445 72 192 0.0 0.9 0.00 0.11 0.00 96 1016.6
20260903092946 72 192 0.0 0.9 0.00 0.11 0.00 96 1016.7
20260903092444 72 172 0.0 0.0 0.00 0.11 0.00 96 1016.7
20260903091944 72 172 0.0 0.0 0.00 0.11 0.00 96 1016.7
20260903091442 72 172 0.0 0.0 0.00 0.11 0.00 95 1016.7
20260903090941 72 172 0.0 0.9 0.00 0.11 0.00 95 1016.7
20260903090442 72 172 0.0 0.9 0.00 0.11 0.00 96 1016.6
20260903085942 72 172 0.0 0.9 0.00 0.11 0.00 95 1016.6
20260903085438 72 172 0.0 0.9 0.00 0.11 0.00 96 1016.6
20260903084938 72 172 0.0 1.7 0.00 0.11 0.00 96 1016.6
20260903084436 72 172 0.0 1.7 0.00 0.11 0.00 96 1016.6
20260903084412 72 172 0.0 0.9 0.00 0.11 0.00 95 1016.7
20260903083430 72 172 0.0 0.9 0.00 0.11 0.00 95 1016.7
20260903083159 72 172 0.0 0.9 0.00 0.11 0.00 95 1016.6
20260903082426 72 172 0.0 1.7 0.00 0.11 0.00 95 1016.5
20260903081924 72 188 0.0 1.7 0.00 0.11 0.00 95 1016.5
20260903081426 72 188 0.0 0.0 0.00 0.11 0.00 95 1016.5
20260903080918 72 188 0.0 0.0 0.00 0.11 0.00 95 1016.4
20260903080640 73 188 0.0 0.9 0.00 0.11 0.00 95 1016.5
20260903075905 73 188 0.0 1.7 0.00 0.11 0.00 95 1016.5
20260903075618 73 188 0.0 1.7 0.00 0.11 0.00 95 1016.3
20260903075113 73 188 0.0 0.9 0.00 0.11 0.00 95 1016.2
20260903074346 73 188 0.0 0.9 0.00 0.11 0.00 95 1016.2
20260903073840 73 188 0.0 0.9 0.00 0.11 0.00 95 1016.2
20260903073333 73 188 0.0 0.9 0.00 0.11 0.00 95 1016.2
20260903072827 73 188 0.0 0.9 0.00 0.11 0.00 95 1016.1
20260903072321 73 188 0.0 0.9 0.00 0.11 0.00 95 1016.2
20260903071815 73 188 0.0 0.9 0.00 0.11 0.00 95 1016.2
20260903071309 73 188 0.0 0.9 0.00 0.11 0.00 95 1016.1
20260903070803 73 188 0.0 0.9 0.00 0.11 0.00 95 1016.2
20260903070515 73 185 0.0 0.9 0.00 0.11 0.00 95 1016.2
20260903065751 73 156 0.0 1.7 0.00 0.11 0.00 95 1016.1
20260903065505 73 156 0.0 1.7 0.00 0.11 0.00 95 1016.2
20260903064740 73 148 0.0 0.9 0.00 0.11 0.00 95 1016.3
20260903064723 73 148 0.0 0.9 0.00 0.11 0.00 95 1016.3
20260903063727 73 148 0.0 0.9 0.00 0.11 0.00 95 1016.4
20260903063221 72 148 0.0 0.9 0.00 0.11 0.00 95 1016.5
20260903062715 72 148 0.0 0.9 0.00 0.11 0.00 95 1016.4
20260903062437 72 148 0.0 0.9 0.00 0.11 0.00 95 1016.6
20260903062147 72 148 0.0 0.9 0.00 0.11 0.00 95 1016.5
20260903061157 72 148 0.0 0.9 0.00 0.11 0.00 95 1016.6
20260903060651 72 148 0.0 0.9 0.00 0.11 0.00 95 1016.8
20260903060145 72 148 0.0 0.9 0.00 0.11 0.00 95 1016.8
20260903055900 72 148 0.0 1.7 0.00 0.11 0.00 95 1016.9
20260903055133 72 148 0.9 1.7 0.00 0.11 0.00 95 1017.0
20260903054627 72 148 0.9 1.7 0.00 0.11 0.00 95 1017.0
20260903054121 72 148 0.9 2.6 0.00 0.11 0.00 94 1017.0
20260903053615 72 139 0.9 2.6 0.00 0.11 0.00 95 1017.1
20260903053109 72 153 0.0 2.6 0.00 0.11 0.00 94 1017.2
20260903052832 72 77 0.0 0.9 0.00 0.11 0.00 94 1017.3
20260903052058 72 77 0.0 0.9 0.00 0.11 0.00 94 1017.3
20260903052035 72 77 0.0 0.9 0.00 0.11 0.00 94 1017.2
20260903051045 72 77 0.0 0.9 0.00 0.11 0.00 94 1017.2
20260903050542 72 77 0.0 0.0 0.00 0.11 0.00 94 1017.1
20260903050033 72 77 0.0 0.0 0.00 0.11 0.00 94 1017.1
20260903045753 72 77 0.0 0.0 0.00 0.11 0.00 94 1017.2
20260903045020 72 77 0.0 0.9 0.00 0.11 0.00 94 1017.3
20260903044514 72 77 0.0 0.9 0.00 0.11 0.00 94 1017.2
20260903044009 72 77 0.0 0.0 0.00 0.11 0.00 94 1017.2
20260903043723 72 77 0.0 0.9 0.00 0.11 0.00 94 1017.1
20260903042958 72 77 0.0 0.9 0.00 0.11 0.00 94 1017.2
20260903042712 72 77 0.0 0.0 0.00 0.11 0.00 94 1017.2
20260903042209 72 77 0.0 0.9 0.00 0.11 0.00 93 1017.2
20260903041439 72 77 0.0 0.9 0.00 0.11 0.00 93 1017.3
20260903040933 72 77 0.0 0.0 0.00 0.11 0.00 93 1017.3
20260903040427 72 77 0.0 0.9 0.00 0.11 0.00 93 1017.4
20260903035921 72 77 0.0 0.9 0.00 0.11 0.11 93 1017.4
20260903035415 72 77 0.0 0.9 0.00 0.11 0.11 93 1017.3
20260903035401 72 77 0.0 0.9 0.00 0.11 0.11 93 1017.4
20260903034402 72 10 0.0 0.9 0.00 0.11 0.11 93 1017.3
20260903033857 72 10 0.0 0.9 0.00 0.11 0.11 93 1017.3
20260903033614 72 10 0.0 0.0 0.00 0.11 0.11 93 1017.2
20260903032845 72 10 0.0 0.0 0.00 0.11 0.11 93 1017.1
20260903032339 73 10 0.0 0.0 0.00 0.11 0.11 93 1017.1
20260903031833 73 10 0.0 0.0 0.00 0.11 0.11 93 1017.2
20260903031327 73 10 0.0 0.0 0.00 0.11 0.11 93 1017.1
20260903031047 73 10 0.0 0.0 0.00 0.11 0.11 93 1017.0
20260903030534 73 10 0.0 0.0 0.00 0.11 0.11 93 1017.0
20260903025809 73 10 0.0 0.0 0.00 0.11 0.11 93 1016.9
20260903025527 73 10 0.0 0.0 0.00 0.11 0.11 93 1016.9
20260903024959 73 10 0.0 0.0 0.00 0.11 0.11 93 1016.9
20260903024841 73 10 0.0 0.0 0.00 0.11 0.11 93 1016.9
20260903023745 73 10 0.0 0.0 0.00 0.11 0.11 93 1016.9
20260903023239 73 10 0.0 0.0 0.00 0.11 0.11 93 1016.8
20260903023214 73 10 0.0 0.0 0.00 0.11 0.11 93 1016.8
20260903022227 74 10 0.0 0.0 0.00 0.11 0.11 93 1016.8
20260903021721 74 10 0.0 0.0 0.00 0.11 0.11 93 1016.9
20260903021448 74 10 0.0 0.0 0.00 0.11 0.11 93 1016.9
20260903020930 74 10 0.0 0.9 0.00 0.11 0.11 93 1016.9
20260903020203 74 10 0.0 0.9 0.00 0.11 0.11 93 1016.9
20260903015657 74 10 0.0 0.0 0.00 0.11 0.11 93 1017.1
20260903015157 74 10 0.0 0.0 0.00 0.11 0.11 93 1017.2
20260903014654 74 10 0.0 0.0 0.00 0.11 0.11 93 1017.2
20260903014154 74 10 0.0 0.0 0.00 0.11 0.11 93 1017.3
20260903013652 74 10 0.0 0.0 0.00 0.11 0.11 93 1017.3
20260903013149 74 10 0.0 0.0 0.00 0.11 0.11 93 1017.3
20260903012647 75 10 0.0 0.0 0.00 0.11 0.11 93 1017.3
20260903012147 75 10 0.0 0.0 0.00 0.11 0.11 93 1017.3
20260903011647 75 10 0.0 0.0 0.00 0.11 0.11 93 1017.4
20260903011411 75 10 0.0 0.9 0.00 0.11 0.11 93 1017.5
20260903010647 75 10 0.0 0.9 0.00 0.11 0.11 93 1017.3
20260903010147 75 346 0.0 0.9 0.00 0.11 0.11 93 1017.1
20260903005647 75 346 0.0 0.9 0.00 0.11 0.11 93 1017.3
20260903005145 75 59 0.0 1.7 0.00 0.11 0.11 93 1017.5
20260903004644 75 33 0.0 1.7 0.00 0.11 0.11 93 1017.5
20260903004357 76 86 0.0 0.0 0.00 0.11 0.11 93 1017.5
20260903003640 76 86 0.0 0.0 0.00 0.11 0.11 93 1017.5
20260903003139 76 86 0.0 0.0 0.00 0.11 0.11 93 1017.6
20260903002638 76 86 0.0 0.0 0.00 0.11 0.11 93 1017.7
20260903002136 76 86 0.0 0.0 0.00 0.11 0.11 93 1017.6
20260903001637 76 86 0.0 0.0 0.00 0.11 0.11 93 1017.5
20260903001132 76 86 0.0 0.0 0.00 0.11 0.11 93 1017.5
20260903000626 76 86 0.0 0.0 0.00 0.11 0.11 93 1017.6
20260903000125 76 86 0.0 0.0 0.00 0.11 0.11 92 1017.5
20260902235625 76 86 0.0 0.0 0.00 0.11 0.11 93 1017.5
20260902235124 76 86 0.0 0.0 0.00 0.11 0.11 92 1017.5
20260902234626 76 86 0.0 0.0 0.00 0.11 0.11 92 1017.6
20260902234123 76 86 0.0 0.0 0.00 0.11 0.11 92 1017.6
20260902233621 76 86 0.0 0.0 0.00 0.11 0.11 92 1017.5
20260902233118 76 86 0.0 0.0 0.00 0.11 0.11 93 1017.3
20260902232618 76 86 0.0 0.0 0.00 0.11 0.11 93 1017.1
20260902232333 76 86 0.0 0.0 0.00 0.11 0.11 93 1017.4
20260902231617 77 86 0.0 0.0 0.00 0.11 0.11 93 1017.6
20260902231116 77 86 0.0 0.0 0.00 0.11 0.11 93 1017.4
20260902230617 77 86 0.0 0.0 0.00 0.11 0.11 93 1017.8
20260902230550 77 86 0.0 0.0 0.00 0.11 0.11 93 1018.1
20260902225612 77 86 0.0 0.0 0.00 0.11 0.11 93 1018.0
20260902225602 77 86 0.0 0.0 0.00 0.11 0.11 93 1017.7
20260902224613 77 86 0.0 0.0 0.00 0.11 0.11 94 1017.8
20260902224111 77 86 0.0 0.0 0.00 0.11 0.11 94 1018.0
20260902223830 77 86 0.0 0.0 0.00 0.11 0.11 94 1017.9
20260902223117 77 86 0.0 0.0 0.00 0.11 0.11 94 1017.8
20260902222842 77 86 0.0 0.0 0.00 0.11 0.11 93 1018.0
20260902222113 76 86 0.0 0.9 0.00 0.11 0.11 93 1017.7
20260902222048 77 86 0.0 0.9 0.00 0.11 0.11 93 1017.6
20260902221335 77 86 0.0 0.9 0.00 0.11 0.11 91 1017.7
20260902220614 77 86 0.0 0.9 0.00 0.11 0.11 91 1017.5
20260902220113 77 86 0.0 0.9 0.00 0.11 0.11 91 1017.2
20260902215613 77 86 0.0 0.9 0.00 0.11 0.11 91 1017.2
20260902215115 77 86 0.0 0.0 0.00 0.11 0.11 90 1017.3
20260902214611 77 86 0.0 0.0 0.00 0.11 0.11 90 1017.5
20260902214109 77 86 0.0 0.0 0.00 0.11 0.11 90 1017.6
20260902213606 78 86 0.0 0.0 0.00 0.11 0.11 90 1017.6
20260902213107 78 86 0.0 0.0 0.00 0.11 0.11 90 1017.8
20260902212606 78 86 0.0 0.9 0.00 0.11 0.11 89 1017.7
20260902212100 78 86 0.0 0.9 0.00 0.11 0.11 89 1017.8
20260902211552 78 86 0.0 1.7 0.01 0.11 0.11 89 1017.8
20260902211053 78 86 0.0 1.7 0.01 0.11 0.11 89 1018.0
20260902210550 78 86 0.0 0.9 0.01 0.11 0.11 88 1017.9
20260902210049 79 86 0.0 0.9 0.01 0.11 0.11 88 1018.1